Regional Weather Roundup
Issued by NWS Glasgow, MT

Home | Current Version | Previous Version | Text Only | Print | Product List | Glossary On
Versions: 1 2 3 4 5 6 7 8 9 10 11 12 13 14 15 16 17 18 19 20 21 22 23 24 25 26 27 28 29 30 31 32 33 34 35 36 37 38 39 40 41 42 43 44 45 46 47 48 49 50
000
ASUS45 KGGW 181315
RWRGGW
HOURLY WEATHER ROUNDUP FOR NORTHEAST MONTANA
NATIONAL WEATHER SERVICE GLASGOW MONTANA
700 AM MDT SAT APR 18 2015

NOTE: "FAIR" INDICATES FEW OR NO CLOUDS BELOW 12,000 FEET WITH NO
SIGNIFICANT WEATHER AND/OR OBSTRUCTIONS TO VISISBILITY.

NORTHEAST MONTANA


CITY           SKY/WX    TMP DP  RH WIND       PRES   REMARKS
GLASGOW        CLEAR     41  29  62 SE10      29.92S
PLENTYWOOD       N/A     41  28  60 SE10        N/A
WOLF POINT     CLEAR     36  28  73 NE3       29.94F
JORDAN           N/A     43  31  62 S5        29.94S
WINNETT          N/A     43  30  61 S3          N/A
SIDNEY         CLEAR     37  28  70 S5        29.98S
GLENDIVE       PTCLDY    39  30  70 S9        29.99S
MALTA            N/A     40  32  73 SW7         N/A
SCOBEY           N/A     37  23  57 CALM      29.91S
OPHEIM           N/A     39  28  65 SW5       29.78R

FORT PECK REPORTS


CITY           SKY/WX    TMP DP  RH WIND       PRES   REMARKS
FORT PECK        N/A     46  32  58 SE13        N/A
THE PINES        N/A     43  34  70 S5          N/A

SOUTHEAST MONTANA


CITY           SKY/WX    TMP DP  RH WIND       PRES   REMARKS
BILLINGS       PTCLDY    41  30  65 SW17      29.99R
MILES CITY     PTCLDY    44  37  76 S7        29.97S
BAKER          PTCLDY    37  32  82 SE3       30.00F
LIVINGSTON     CLEAR     32  23  69 W6        30.07R

CENTRAL MONTANA


CITY           SKY/WX    TMP DP  RH WIND       PRES   REMARKS
HAVRE          CLOUDY    44  36  73 NW21G32   30.07R
LEWISTOWN      CLEAR     40  30  67 SW14      30.05R
GREAT FALLS    PTCLDY    42  30  62 N16       30.08R
CUT BANK       NOT AVBL
HELENA         CLEAR     38  27  64 E6        30.09R
BUTTE          CLEAR     27  23  85 SE3       30.16R
BOZEMAN        CLEAR     30  24  78 SE7       30.11R

WESTERN MONTANA


CITY           SKY/WX    TMP DP  RH WIND       PRES   REMARKS
MISSOULA       CLEAR     38  30  73 NE3       30.16R
KALISPELL      NOT AVBL

NORTH DAKOTA


CITY           SKY/WX    TMP DP  RH WIND       PRES   REMARKS
WILLISTON      CLEAR     43  29  57 CALM      29.98F
DICKINSON      PTCLDY    38  28  67 SE3       29.99S
MINOT          FAIR      35  27  72 SE6       30.04F
BISMARCK       SUNNY     38  28  67 E7        30.06S

SOUTHERN SASKATCHEWAN


CITY           SKY/WX    TMP DP  RH WIND       PRES   REMARKS
REGINA         MOCLDY    43  32  65 S14       29.90F
ESTEVAN        PTCLDY    45  28  53 SE12      29.97F
SWIFT CURRENT  CLEAR     41  37  87 NW15      29.98R



USA.gov is the U.S. government's official web portal to all federal, state and local government web resources and services.